Regional Weather Roundup
Issued by NWS

Home | Current Version | Previous Version | Graphics & Text | Print | Product List | Glossary On
Versions: 1 2 3 4 5 6 7 8 9 10 11 12 13 14 15 16 17 18 19 20 21 22 23 24 25 26 27 28 29 30 31 32 33 34 35 36 37 38 39 40 41 42 43 44 45 46 47 48 49 50
000
ASUS43 KTOP 191008
RWRKS

WEATHER ROUNDUP FOR KANSAS
NATIONAL WEATHER SERVICE GOODLAND KS
400 AM CST FRI DEC 19 2014

NOTE:  "FAIR" INDICATES FEW OR NO CLOUDS BELOW 12,000 FEET WITH NO
SIGNIFICANT WEATHER AND/OR OBSTRUCTIONS TO VISIBILITY.

KSZ001>006-013>018-027>032-041>047-191100-
NORTHWEST KANSAS

CITY           SKY/WX    TMP DP  RH WIND       PRES   REMARKS
GOODLAND       CLEAR     25  21  85 W7        30.09F
HAYS           CLOUDY    32  25  74 S3        30.17F
HILL CITY      CLOUDY    32  29  88 E3        30.15F
RUSSELL        CLOUDY    31  30  96 S7        30.17F
$$

KSZ061>065-074>080-084>089-191100-
SOUTHWEST KANSAS

CITY           SKY/WX    TMP DP  RH WIND       PRES   REMARKS
DODGE CITY     CLOUDY    33  31  92 S5        30.15F FOG
ELKHART          N/A     33  28  81 SW2         N/A
GARDEN CITY    CLOUDY    32  30  92 SW6       30.13F FOG
GREAT BEND     CLOUDY    30  27  86 S6        30.19F
LIBERAL        CLOUDY    36  32  87 CALM      30.16F
PRATT          CLOUDY    32  32 100 NE5       30.18F FOG
$$

KSZ066>073-081>083-090>101-191100-
SOUTHEAST KANSAS

CITY           SKY/WX    TMP DP  RH WIND       PRES   REMARKS
CHANUTE        CLOUDY    33  33 100 N5        30.23F FOG
COFFEYVILLE    CLOUDY    35  33  92 N8        30.23F FOG
HUTCHINSON     CLOUDY    31  28  89 CALM      30.21F FOG
MEDICINE LODGE   N/A     33  32  96 CALM      30.19F
NEWTON         CLOUDY    28  23  80 N5        30.22F VSB 3/4
PARSONS        CLOUDY    35  34  96 N5        30.24F
WICHITA INTL   CLOUDY    31  28  89 N5        30.22F
WICHITA JABRA  CLOUDY    29  28  96 N3        30.22S FOG
WICHITA MCCONL CLOUDY    29  28  96 NE5       30.21F
WINFIELD       CLOUDY    32  31  96 N6        30.23F
$$

KSZ007>012-019>026-033>040-048>060-102>105-191100-
NORTHEAST KANSAS

CITY           SKY/WX    TMP DP  RH WIND       PRES   REMARKS
CONCORDIA      CLOUDY    29  28  96 S6        30.21F
EMPORIA        CLOUDY    29  28  96 N3        30.23F
LAWRENCE       CLOUDY    32  29  88 NE3       30.25F
MANHATTAN      CLOUDY    31  28  89 SW3       30.25S
MARYSVILLE     CLOUDY    30  28  93 CALM      30.22F
OLATHE IND     CLOUDY    31  28  89 CALM      30.24F
OLATHE EXE     CLOUDY    32  30  92 N3        30.23F FOG
SALINA         CLOUDY    30  27  88 SE5       30.24F FOG
TOPEKA BILLARD CLOUDY    32  29  88 NW5       30.26F
TOPEKA FORBES  CLOUDY    31  28  89 CALM      30.24F
$$


USA.gov is the U.S. government's official web portal to all federal, state and local government web resources and services.